Location: アルンシュタイン
(50.0000°N, 10.0000°E)
Time: 03:32:22
(UTC+02:00)

Oscar 19 - Visible Passes

Search period start: 18 August 2022 00:00
Search period end: 28 August 2022 00:00
Orbit: 773 x 790 km, 98.8° (Epoch: 17 August)

Date Brightness Start Highest point End Pass type
(mag) Time Alt. Az. Time Alt. Az. Time Alt. Az.
18 Aug 11.1 04:56:38 10° NNE 05:01:49 65° ESE 05:06:59 10° S visible
19 Aug 12.1 04:24:50 10° NNE 04:29:38 36° E 04:34:23 10° SSE visible
20 Aug 12.9 03:53:29 10° NE 03:57:17 20° E 04:01:04 10° SE visible
20 Aug 10.7 05:31:52 10° N 05:37:03 68° WNW 05:42:12 10° SSW visible
21 Aug 13.4 03:23:41 10° ENE 03:24:46 11° E 03:25:51 10° E visible
21 Aug 11.0 04:59:49 10° NNE 05:05:01 69° ESE 05:10:12 10° S visible
22 Aug 12.0 04:27:59 10° NNE 04:32:51 38° E 04:37:40 10° SSE visible
23 Aug 12.8 03:56:35 10° NE 04:00:31 21° E 04:04:25 10° SE visible
23 Aug 10.8 05:35:05 10° N 05:40:14 64° WNW 05:45:23 10° SSW visible
24 Aug 13.4 03:26:25 10° ENE 03:28:01 11° E 03:29:37 10° ESE visible
24 Aug 10.9 05:03:00 10° NNE 05:08:13 72° ESE 05:13:25 10° S visible
25 Aug 11.9 04:31:09 10° NNE 04:36:03 40° E 04:40:56 10° SSE visible
26 Aug 12.8 03:59:41 10° NE 04:03:44 22° E 04:07:46 10° SE visible
26 Aug 10.8 05:38:16 10° N 05:43:25 61° WNW 05:48:32 10° SSW visible
27 Aug 13.3 03:29:16 10° ENE 03:31:15 12° E 03:33:13 10° ESE visible
27 Aug 10.8 05:06:11 10° NNE 05:11:25 76° ESE 05:16:37 10° S visible
